[Date Prev][Date Next][Thread Prev][Thread Next][Date Index][Thread Index]

[jamsat-news:1489] jas2info #226



========================   最新情報   ==============================

        Last updated :Sat.19MAY2001  17:10(JST)   #226
        
====================================================================
   
  1)アマチュア通信衛星情報、FOシリーズの軌道要素、テレメトリ、QSOの
   状況等をまとめてみました.
   
   FO−29の2001年5月19(土)の10:31(JST)のパスでは
  JARLのホームページのとうりアナログ運用でした。観測したテレメトリーと
  分析結果を掲載しておきます.

AS23471C1  19MAY2001
10:31-10:39(JST)
Freq.435.799-.792MHz

HI HI AE C7 88 55 00 D4 5D 04 09 04    77 8E 60 93 91 B0 83 AD AA AC AD AA 
HI HI AE C7 88 55 00 D4 5D 04 09 04          60 93 92 B0    AC AA AB AD AA 
HI HI AE C7 88 55 00 D4 5D 04 09 04          60 93 91 B0 79 AC A9 AB AD AA 
HI HI AE C7 88 55 00 D4 5D 04 09 04                   B0 64 AD A9 AB AD AA
HI HI TE C7 88 55 00 D4 5D 04 09 04 58 8C 8B 60 93 91 B0 79 AC A9 AB AD AA 
HI HI AE C7 88 55 00 D4 5D 04 09 04 56 9B 89 60 93 91 B0 73 AC A9 AB AD A9 
HI HI AE C7 88 55 00 D4 5D 04 09 04 5B AB 81 60 93 91 B0 66 AC A9 AB AD AA 
HI HI AE C7 88 55 00 D4 5D 04 09 04 5F AF 74 60 93 91 B0 6B AC A9 AB AD AA  

AS23457C1  18MAY2001
9:36-9:52(JST)
Freq.435.804-.787MHz

HI HI AE C7 88 55 00 D4 02 ED 09 59 44 56 6E 60 93 91 B0 89 AD AB AD AD A9 
HI HI AE C7 88 55 00 D4 02 ED 09 59 40 52 6B 60 93 91 B0 7F AD AB AD AD A9 
HI HI AE C7 88 55 00 D4 02 ED 09 59 40 4B 74 60 93 91 B0 85 AD AB AD AD A9 
HI HI AE C7 88 55 00 D4 02 ED 09 59 45 43 7B 60 93 91 B0 86 AD AA AD AD A9 
HI HI AE C7 88 55 00 D4 02 EE 09 59 4C 3B 7E 60 93 92 B0 B4 AD AA AD AD A9  
HI HI AE C7 88 55 00 D4 02 ED 09 59 55 35 81 60 93 92 B0 7A AD AA AD AD A9 
HI HI AE C7 88 55 00 D4 02 ED 09 59 5D 2F 82 60 93 92 B0 88 AD AA AD AD A9 
HI HI AE C7 88 55 00 D4 02 ED 09 59 64 2D 82 60 94 92 B0 6E AD AA AD AD A9 
HI HI AE C7 88 55 00 D4 02 ED 09 59 69 2E 8C 60 94 92 B0 76 AD AA AC AD A9 
HI HI AE C7 88 55 00 D4 02 ED 09 59 67 33 93 68 94 92 B0 81 AE AA AC AD AA 
HI HI AE C7 88 55 00 D4 02 ED 09 59 62 3A 91 61 94 92 B0 5B AD AA AC AD AA 
HI HI AE C7 88 55 00 D4 02 ED 09 59 58 43 8B 61 94 92 B1 6F AD AA AC AD AA 
HI HI AE C7 88 55 00 D4 02 ED 09 59 4C 4D 7F 61 94 92 B0 BE AD AA AC AD AA 
HI HI AE C7 88 55 00 D4 02 ED 09 59 3F 57 76 60 93 92 B0 70 AD A9 AC AD AA 
HI HI AE C7 88 55 00 D4 02 ED 09 59 31 60 74 61 94 92 B0 6E AD A9 AB AD AA 
HI HI AE C7 88 55 00 D4 02 ED 09 59 26 67 75 61 94 92 B0 6E AD A9 AB AD AA 
HI HI AE C7 88 55 00 D4 02 ED 09 59 20 6A 72 61 94 92 B0 73 AD A9 AB AC AA 
HI HI AE C7 88 55 00 D4 02 ED 09 59 20 6B 73 61 94 92 B0    AD A9 AB AC AA 
HI HI AE C7 88 55 00 D4 02 ED 09 59 34 64 74 61 94 92 B0 66 AD A9 AB AC AA

AS23437C1   16MAY2001
20:53-21:08(JST)
Freq.435.805-.786MHz

HI HI AE C7 88 55 00 D4 00 00 09 00 73 36 6C 61 95 93 B0 7C AD AD AB A9 AC 
HI HI AE C7 88 55 00 D4 00 00 09 00 70 3E 6F 61 95 94 B0 6F AD AD AB A9 AC 
HI HI AE C7 88 55 00 D4 00 00 09 00 65    71 61 95 94 B0 80 AC AC AB A9 AD 
HI HI AE C7 88 55 00 D4 00 00 09 00 64 4D 71 61 95 94 B0 77 AC AC AB A9 AC 
HI HI AE C7 88 55 00 D4 00 00 09 00 5B 53 6E 61 95 94 B0 58 AC AC AB A9 AC 
HI HI AE C7 88 55 00 D4 00 09 09 00 52          95 93 B0    AC AC AB A9 AC 
HI HI AE C7 88 55 00 D4 00 09 09 00 5A 5C 68 61 95 94 B0 70 AC AC AB A8 AC 
HI HI AE C7 88 55 00 D4 00 09 09 00 6                       AB AC AB T8 AE 
HI HI AE C7 88 55 00 D4 00 00 09 00 6B 5F 71 61 96 94 B0 49 AB AC AB A8 AC 
HI HI AE C7 88 55 00 D4 00 00 09 00 6         6 96 94 B0 9D AB AC AB A8 AC 
HI HI AE C7 88 55 00 D4 00 00 6E 00 65 5E                4C AB AC AB A7 AC 
HI HI AE C7 88 55 00 D4 00 00 09 00 66 5D 6D 61 96 94 B0 88 AB AC AB A8 AC 
HI HI AE C7 88 55 00 D4 00 00 09 00 55 5B 02 86 7A 89 94 70 AB AB AA A7 AC 
HI HI AE C7 88 55 00 D4 00 00 09 00 6I 3D 5A 87 86 85 91 67 AB AB AA A7 AC 
HI HI AE C7 88 55 00 D4 00 00 09 00 43 5B 00 88 85 84 8F 59 AB AB AA A7 AB 
HI HI AE 07 88 55 00 D4 00 00 09 00 42 50 00 89 85 84 8F 9C AB AB AA A7 AB 
HI HI AE 07 88 55 00 D4 00 00 09 00 51 61 00 7D 84 84 8F 7B AB AC AA A7 AB 
HI HI AE 07 88 55 00 D4 00 00 08 00 58 66 00 89 84 83 8F 7D AB AC AA A7 AB 
HI HI AE 07 88 55 00 D4 00 00 09 00 5E 6B 00 8O          97 AB AC AA A7 AB 
HI HI AE 07 88 55 0O D4 00 00 09 00 6E 56 00 

 ------------------------ FO-29の軌道要素 ------------------------------        
 
  ■ 軌道要素1:「jamsat−keps:1002」より         
          SB KEPS @ AMSAT  $ORB01137.N
          2Line Orbital Elements 01137.AMSAT

HR AMSAT ORBITAL ELEMENTS FOR AMATEUR SATELLITES IN NASA FORMAT
FROM WA5QGD FORT WORTH,TX May 17, 2001
SEND SUBSCRIBE/UNSUBSCRIBE TO majordomo@amsat.org ONLY
BID: ORB01137.N

 DECODE 2-LINE ELSETS WITH THE FOLLOWING KEY:
 1 AAAAAU 00  0  0 BBBBB.BBBBBBBB  .CCCCCCCC  00000-0  00000-0 0  DDDZ
 2 AAAAA EEE.EEEE FFF.FFFF GGGGGGG HHH.HHHH III.IIII JJ.JJJJJJJJKKKKKZ
 KEY: A-CATALOGNUM B-EPOCHTIME C-DECAY D-ELSETNUM E-INCLINATION F-RAAN
 G-ECCENTRICITY H-ARGPERIGEE I-MNANOM J-MNMOTION K-ORBITNUM Z-CHECKSUM

FO-29
1 24278U 96046B   01136.69298282  .00000024  00000-0  57552-4 0 04332
2 24278 098.5482 006.1854 0352002 083.5103 280.5981 13.52771852234381

 ■ 軌道要素2:「jamsat−keps:10103」より                     

        SB KEPS @ AMSAT  $ORB01137.O
        Orbital Elements  01137.OSCAR

HR AMSAT ORBITAL ELEMENTS FOR OSCAR SATELLITES
FROM WA5QGD FORT WORTH,TX May 17, 2001
SEND SUBSCRIBE/UNSUBSCRIBE TO majordomo@amsat.org ONLY
BID: ORB01137.O
TO ALL RADIO AMATEURS BT
 
Satellite: FO-29
Catalog number: 24278
Epoch time:      01136.69298282
Element set:    0433
Inclination:      098.5482 deg
RA of node:       006.1854 deg
Eccentricity:    0.0352002
Arg of perigee:   083.5103 deg
Mean anomaly:     280.5981 deg
Mean motion:   13.52771852 rev/day
Decay rate:        2.4e-07 rev/day^2
Epoch rev:           23438
Checksum:              304

-------------------  FO-29(JAS-2)のテレメトリに関する情報  ---------------------- 
 
2)上記5月19日(土)のテレメトリ最終行を分析しておきます.

AS23471C1  19MAY2001
10:31-10:39(JST)
Freq.435.799-.792MHz

HI HI AE C7 88 55 00 D4 5D 04 09 04 5F AF 74 60 93 91 B0 6B AC A9 AB AD AA  

テレメトリ   内 容       換算算値 単 位  
3C	磁気センサーZ軸=	46568.6	[nT]
3D	磁気センサX軸	=	85784.3	[nT]
4A	太陽電池発生電流=	 1137.3	[mA]
4B	B充放電電流	= 	 -118.4	[mA]
4C	B端子電圧	=	   15.8	[V]
4D	B中間端子電圧	=	    7.0	[V]
5A	バス電圧	=	   17.3	[V]
5B	JTA送信電力	=	  597.4	[mW]
5C 	構体温度1	=	   15.1	[℃]
5D	構体温度2	=	   16.2	[℃]
6A	構体温度3	=	   15.5	[℃]
6B	構体温度4	=	   14.7	[℃]
6C	Bセル温度	=	   15.9	[℃]
   	
 ========================== FO-29(ふじ3号)のQSO情報等 ======================
   
 3)[jamsat-bb:

 ===============================================================================
   4)JARL のホームページに運用予定が記載されていましたのでご紹介します.
       ( http://www.jarl.or.jp/Japanese/3_Fuji/new/uy.htm )

        ■ ふじ3号/FOー29/JAS-2 ■  
   
     *** 運用予定について ***

     4月2日 〜 7月2日 アナログ系運用

  *なお,運用予定は都合により変更することがありますので予めご了承願います。

 照会先 : lab@jarl.or.jp

 最新の情報はテレホンサービス(03−3942−1000)をお聞きください。  
 以後の運用につきましては平成13年7月上旬にお知らせ致します。    
    
-----------------------    FO−20(JAS-1b)道要素   -------------------------
  5)
  ■ 軌道要素1 :出典はFO-29「ふじ3号」に同じ.
  
FO-20
1 20480U 90013C   01136.90836685 -.00000050  00000-0 -41416-4 0 03310
2 20480 099.0621 211.1723 0540917 020.0439 342.1044 12.83292285528087
 
  ■ 軌道要素2 :出典はFO−29「ふじ3号」に同じ.
               
Satellite: FO-20
Catalog number: 20480
Epoch time:      01136.90836685
Element set:    0331
Inclination:      099.0621 deg
RA of node:       211.1723 deg
Eccentricity:    0.0540917
Arg of perigee:   020.0439 deg
Mean anomaly:     342.1044 deg
Mean motion:   12.83292285 rev/day
Decay rate:       -5.0e-07 rev/day^2
Epoch rev:           52808
Checksum:              267
 
 --------------------------------------------------------------------------------
 
         ■ ふじ2号/FO−20/JAS-1b ■      
            
          「ふじ2号」 現況                                                                                  
             
   JAS-1b(ふじ2号)のCWテレメトリ信号に,1997年10月12日12時(JST)の
 日本上空通過時,3桁の数字が繰り返されるはずが3個の長音の繰り返しとなっているという
 異常が発見されました。この不具合は次の通過時からは回復していましたが13日15時20分の
 通過時に再び観測されました。現在はA0の送信が続いています。衛星のアナログ系中継モード
 動作は異常が無く,正常時のテレメトリ内容からは衛星の動作に異常は認められません。従って,
 直ちに衛星のミッションに影響することは無いと予想されますので,当面はアナログ系中継
 モードを継続します。衛星は既に打ち上げてから7年8ヶ月を経ておりますので,今後は監視を
 強化する予定です。アマチュア各位のレポートをお待ちします。
 -------------------------------------------------------------------------------- 
  1997年10月14日 00時35分 確認のテレメトリ音 151 KB (A0) 
  1997年10月14日 11時10分 確認のテレメトリ音 216 KB (異常キーイング) 

  以上 JARLのホ−ムページの http://www.jarl.or.jp/Japanese/3_Fuji/new/fuji.htm

===================== FO-20 ふじ2号 のテレメトリ観測結果 ====================

   12月22日(金)の12:21(JST)のパスの観測結果では以前観測した
 単一周波数のドップラー効果で周波数がずれていくのみの状態に戻っておりました。
                                         
   =============   JAS-2 (ふじ3号)と現在までの情報   ===========
  
  A.電話によるふじ3号の運用情報
      社団法人日本アマチュア連盟によるサービス
           TEL .   03− 3942 − 1000
  B.アマチュア無線FAXサービス
      JARLによるふじ3号の軌道情報(オービットカレンダー)
         FAX No.  03− 3233 −0055
  C.WWWブラウザで情報を簡単に見れる人のためにJAS−2
     ふじ3号の衛星としての運用されるまでの名前)の概要、打ち上げ
     までの状況、運用中における状況を説明したホームページを紹介し
     ておきます.
     社団法人日本アマチュア無線連盟(JARL)のホームページ

          http://www.jarl.or.jp/Japanese/3_Fuji/jasmenu.htm
 
     宇宙開発事業団(NASDA)ホームページ 
          http://www.nasda.go.jp/
         打上げ衛星 :地球観測プラットフォーム技術衛星(ADEOS) 
                       アマチュア衛星3号(JAS-2)
          http://yyy.tksc.nasda.go.jp/Home/Press/Press-j/jas-2_j.html        

  D.JAMSATによる軌道情報の活用
        JAMSATのホームページまたはjamsat−kepsの軌道要素より
      衛星の軌道情報を得る.
     JAMSATホームページ
               URL    http://www.jamsat.or.jp
       上記ホームページでは各地で行われるアマチュア通信衛星に関する
      ミューティングのお知らせや世界のアマチュア衛星に関する情報が
      満載されています.
 ========================================================================  
     JAMSATのメンバーのご協力によりJH6MME(高山 秀造)が
    執筆・編集を担当しております.ご指摘の意見、疑問やこのようにしたら
    というアイデアがありましたら小さなことでもかまいませんので気軽に下
    記アドレスまでご連絡ください.jamsat−newsからjas2
    infoへの転載をJH4PHW局坂井さんに担当して頂いております.  
                  E-mail : jh6mme@jamsat.or.jp : jh4phw@jamsat.or.jp
 ===============================   END  ===============================